Location: Lombard
(41.8800°N, 88.0080°W)
Time: 07:43:35
(UTC-06:00)

Vanguard 2 Rocket - All Passes

Search period start: 22 February 2024 00:00
Search period end: 03 March 2024 00:00
Orbit: 554 x 3310 km, 32.9° (Epoch: 22 February)

Date Brightness Start Highest point End Pass type
(mag) Time Alt. Az. Time Alt. Az. Time Alt. Az.
22 Feb - 12:41:16 10° S 12:47:23 20° SE 12:55:50 10° E daylight
22 Feb - 14:49:59 10° SW 15:00:01 49° SSE 15:16:19 10° E daylight
22 Feb - 17:02:10 10° WSW 17:15:31 62° S 17:35:00 10° ESE daylight
22 Feb - 19:16:22 10° W 19:32:24 51° SSW 19:51:19 10° SE visible
22 Feb - 21:33:37 10° W 21:48:25 28° SW 22:02:58 10° S visible
23 Feb - 13:49:21 10° SSW 13:57:43 38° SSE 14:11:13 10° E daylight
23 Feb - 16:00:30 10° WSW 16:12:03 60° S 16:30:22 10° E daylight
23 Feb - 18:13:47 10° W 18:28:28 57° SSW 18:47:55 10° ESE visible
23 Feb - 20:29:22 10° W 20:44:59 36° SSW 21:01:44 10° SSE visible
23 Feb - 22:52:45 10° WSW 22:59:47 13° SW 23:06:38 10° SSW visible
24 Feb - 12:49:22 10° SSW 12:55:59 26° SE 13:05:58 10° E daylight
24 Feb - 14:59:14 10° WSW 15:09:04 54° SSE 15:25:30 10° E daylight
24 Feb - 17:11:41 10° W 17:24:42 60° S 17:43:53 10° ESE daylight
24 Feb - 19:26:03 10° W 19:41:18 44° SSW 19:59:29 10° SE visible
24 Feb - 21:44:41 10° W 21:56:52 21° SW 22:09:10 10° S visible
25 Feb - 11:50:32 10° SSE 11:54:43 15° SE 12:00:04 10° ESE daylight
25 Feb - 13:58:23 10° SW 14:06:39 44° SSE 14:20:33 10° E daylight
25 Feb - 16:09:58 10° WSW 16:21:15 60° S 16:39:22 10° ESE daylight
25 Feb - 18:23:24 10° W 18:37:31 50° SSW 18:56:22 10° SE visible
25 Feb - 20:39:39 10° W 20:53:37 28° SW 21:08:49 10° SSE visible
26 Feb - 12:58:01 10° SSW 13:04:47 33° SSE 13:15:38 10° E daylight
26 Feb - 15:08:38 10° WSW 15:18:16 57° S 15:34:35 10° E daylight
26 Feb - 17:21:16 10° W 17:33:52 55° SSW 17:52:34 10° ESE daylight
26 Feb - 19:35:59 10° W 19:50:07 36° SSW 20:07:07 10° SSE visible
26 Feb - 21:57:51 10° WSW 22:05:22 13° SW 22:13:01 10° SSW visible
27 Feb - 11:58:19 10° S 12:03:23 21° SE 12:10:36 10° E daylight
27 Feb - 14:07:40 10° SW 14:15:46 49° SSE 14:29:45 10° E daylight
27 Feb - 16:19:32 10° W 16:30:31 57° S 16:48:14 10° ESE daylight
27 Feb - 18:33:10 10° W 18:46:32 42° SSW 19:04:25 10° SE visible
27 Feb - 20:50:45 10° W 21:02:15 21° SW 21:14:48 10° S visible
28 Feb - 11:00:52 10° SE 11:02:21 11° SE 11:03:56 10° ESE daylight
28 Feb - 13:07:02 10° SW 13:13:47 39° SSE 13:25:02 10° E daylight
28 Feb - 15:18:10 10° WSW 15:27:33 57° S 15:43:35 10° ESE daylight
28 Feb - 17:30:56 10° W 17:43:02 48° SSW 18:00:55 10° SE daylight
28 Feb - 19:46:20 10° W 19:58:56 28° SW 20:14:01 10° SSE visible
29 Feb - 12:06:53 10° SSW 12:12:15 27° SSE 12:20:27 10° E daylight
29 Feb - 14:17:05 10° WSW 14:25:01 52° S 14:38:52 10° E daylight
29 Feb - 16:29:10 10° W 16:39:47 52° S 16:56:51 10° ESE daylight
29 Feb - 18:43:10 10° W 18:55:32 34° SSW 19:11:54 10° SSE visible
29 Feb - 21:04:01 10° WSW 21:10:58 13° SW 21:18:22 10° SSW visible
01 Mar - 11:07:34 10° S 11:11:06 16° SE 11:15:40 10° ESE daylight
01 Mar - 13:16:19 10° SW 13:22:57 44° SSE 13:34:18 10° E daylight
01 Mar - 15:27:45 10° WSW 15:36:52 54° S 15:52:25 10° ESE daylight
01 Mar - 17:40:46 10° W 17:52:11 40° SSW 18:08:51 10° SE visible
01 Mar - 19:57:34 10° WSW 20:07:48 20° SW 20:19:44 10° S visible
02 Mar - 12:15:52 10° SW 12:21:18 33° SSE 12:29:59 10° E daylight
02 Mar - 14:26:37 10° WSW 14:34:21 52° S 14:47:53 10° ESE daylight
02 Mar - 16:38:54 10° W 16:49:03 45° SSW 17:05:09 10° SE daylight
02 Mar - 18:53:38 10° W 19:04:33 26° SSW 19:18:35 10° SSE visible
